Location: Peterborough
(44.3091°N, 78.3197°W)
Time: 07:46:08
(UTC-04:00)

Vanguard 3 - Pass Details

Date: 23 February 2024
Orbit: 510 x 3234 km, 33.3° (Epoch: 24 April)

Event Time Altitude Azimuth Distance (km) Brightness Sun altitude
Rises 20:42:30 0° 227° (SW) 6,905 12.2 -30.8°
Reaches altitude 10° 20:47:15 10° 221° (SW) 6,053 11.8 -31.6°
Maximum altitude 21:05:07 45° 158° (SSE) 3,862 10.1 -34.6°
Enters shadow 21:06:23 44° 149° (SSE) 3,840 10.1 -34.8°
